Showing default

SPOT 7, 40053

Orbit data source: Space-Track

SPOT 7, 40053 is a payload satellite owned by CNES (AZ) in SSO that was launched on Mon, 30 Jun 2014 UTC via a PSLV launch vehicle from the Sirharikota (SRI). Payload-class satellites include a variety of spacecraft equipped with specific instruments for various scientific and technological missions. These include communications satellites like Starlink; space stations such as the ISS; scientific satellites like the Hubble; Earth observation satellites from companies like Planet Labs, Umbra, and HawkEye 360; GPS; miniature CubeSats for education and research; and military/defense satellites.

Loading next visibility...
Identifier
40053, 2014-034A
Orbit
SSO
Country
Flag of UnknownUnknown / AZER
Related business
Manufacturer
Airbus (UK)
Mission
Operational Commercial Imaging
Bus & Motor
ASTROSAT-500L, AOCS
Mass
712 kg wet, ~712 kg dry
Launch date (UTC)
2014-06-30 (11 years ago)
Launch vehicle
PSLV
Launch site
Sirharikota (SRI)
Object type
Payload
Rocket body
Debris
Shape & HBR
Hex Cyl + 3 Pan, 3.5 m
Radar Cross Section
9.390 m², Large (>1 m²)

Expand to show TLE details & history
Last TLE update: 5 hours ago

TLE from 5 hours ago
0 SPOT 7
1 40053U 14034A   25243.64312370  .00000846  00000-0  18366-3 0  9991
2 40053  98.1051 308.0241 0001547  87.1674 272.9704 14.60540814594862
Epoch: 2025-08-31T15:26Z
TLE epoch observation values (Epoch: 2025-08-31T15:26:05.887Z)
Latitude
-0.00001°
Longitude
96.43945°
Altitude
694.361 km
Speed
7.509 km/s
True Right ascension
20h 32m 05s
True Declination
0° 00' 00"
Sunlit
Object was in full shadow at epoch
Visualization orbit readout
Latitude
Unknown
Longitude
Unknown
Altitude
Unknown
Speed
Unknown
Apparent Right ascension
Unknown
Apparent Declination
Unknown
Sunlit
N/A
Visualization observer readout
Local Sidereal Time
12:19:58
Azimuth
Unknown
Elevation
Unknown
Doppler factor
Unknown
Orbital elements
Apogee altitude
689.598 km
Perigee altitude
687.411 km
Semi-major axis
7,066.641 km
Eccentricity
0.00015
Inclination
98.1051°
RAAN
308.0241°
Arg. of periapsis
87.1674°
True anomaly
272.9527°
Mean anomaly
272.9704°
Eccentric anomaly
272.96155°
Mean motion
3.65362 °/min
Orbital period
98.53 mins
BSTAR
0.00018366
Loading maneuver chart data...
Computing Atmospheric mass density...
Loading historical data...
Loading historical data...
Loading historical data...
Loading historical data...
Loading historical data...
Loading historical data...
Loading historical data...
Other satellites on launch #34 in the year 2014 (2014-06-30 UTC)

Documentation

Showing up to 5 results
|